Location: Shannon
(40.5500°S, 175.4167°E)
Time: 19:45:39
(UTC+00:00)

Cosmos 1867 - Pass Details

Date: 17 November 2025
Orbit: 777 x 796 km, 65.0° (Epoch: 14 December)

Event Time Altitude Azimuth Distance (km) Brightness Sun altitude
Exits shadow 15:11:54 22° 339° (NNW) 1,649 4.7 -16.0°
Maximum altitude 15:15:24 75° 61° (ENE) 820 3.6 -15.5°
Drops below altitude 10° 15:20:49 10° 145° (SE) 2,361 7.3 -14.7°
Sets 15:23:14 0° 146° (SE) 3,294 8.4 -14.4°
